Flag for Greece Weather past 2 weeks in Nikaia, Greece

Now
81 °F

Sunny.


Feels Like: 82 °F
Forecast: 70 / 93 °F
Wind: 5 mph from South

Location: Elefsis Airport

Current Time: Sep 1, 2015 at 9:20:54 PM

Latest Report: Sep 1, 2015 at 8:50 PM


Visibility: 10 mi

Pressure: 29.86 "Hg

Humidity: 58%

Dew point: 64 °F

Location of NikaiaLocation

Historic Weather in Nikaia — Graph

°F

Nikaia temperature yesterday

Maximum temperature yesterday: 95 °F (at 1:20 PM)
Minimum temperature yesterday: 77 °F (at 5:50 AM)
Average temperature yesterday: 86 °F

Past Weeks' High & Low Weather Summary

 TemperatureHumidityPressure
High97 °F (Aug 20, 2:20 PM)74% (Aug 21, 3:20 PM)30.09 "Hg (Aug 21, 3:20 PM)
Low72 °F (Aug 24, 5:50 AM)12% (Aug 29, 3:20 PM)29.74 "Hg (Aug 17, 7:20 PM)
Average83 °F37%29.94 "Hg
* Reported Aug 17 7:20 PM — Sep 1 7:50 PM, Nikaia, Weather by CustomWeather, © 2015

Note: Actual official high and low records may vary slightly from our data, if they occured in-between our weather recording intervals... More about our weather records

Advertising

Nikaia weather history for previous 24 hours

 ConditionsComfort  
Time TempWeatherWind HumidityBarometerVisibility
7:50 PM
Tue, Sep 1
81 °FSunny.9 mph58%29.86 "Hg10 mi
7:20 PM82 °FSunny.12 mph55%29.86 "Hg10 mi
6:50 PM86 °FSunny.12 mph46%29.86 "Hg10 mi
5:50 PM88 °FSunny.12 mph43%29.86 "Hg10 mi
5:20 PM90 °FSunny.12 mph38%29.86 "Hg10 mi
4:50 PM97 °FSunny.12 mph13%29.86 "Hg10 mi
4:20 PM97 °FSunny.9 mph13%29.86 "Hg10 mi
3:50 PM97 °FSunny.12 mph13%29.86 "Hg10 mi
3:20 PM95 °FSunny.12 mph14%29.89 "Hg10 mi
2:50 PM95 °FSunny.10 mph18%29.89 "Hg10 mi
2:20 PM95 °FSunny.9 mph18%29.89 "Hg10 mi
1:50 PM95 °FSunny.13 mph18%29.92 "Hg10 mi
1:20 PM95 °FSunny.12 mph18%29.92 "Hg10 mi
12:50 PM93 °FSunny.14 mph19%29.92 "Hg10 mi
12:20 PM91 °FSunny.14 mph21%29.92 "Hg10 mi
11:50 AM91 °FSunny.13 mph21%29.92 "Hg10 mi
11:20 AM90 °FSunny.14 mph27%29.92 "Hg10 mi
10:50 AM88 °FSunny.15 mph27%29.92 "Hg10 mi
10:20 AM88 °FSunny.14 mph27%29.92 "Hg10 mi
9:50 AM86 °FSunny.14 mph29%29.92 "Hg10 mi
9:20 AM84 °FSunny.12 mph33%29.92 "Hg10 mi
8:50 AM82 °FSunny.15 mph32%29.92 "Hg10 mi
8:20 AM81 °FSunny.15 mph37%29.92 "Hg10 mi
7:50 AM81 °FClear.14 mph39%29.92 "Hg10 mi
6:20 AM81 °FClear.9 mph37%29.89 "Hg10 mi
5:50 AM81 °FClear.12 mph37%29.89 "Hg10 mi
5:20 AM81 °FClear.15 mph39%29.89 "Hg10 mi
4:50 AM81 °FClear.12 mph37%29.92 "Hg10 mi
4:20 AM81 °FClear.10 mph37%29.92 "Hg10 mi
3:50 AM81 °FClear.9 mph37%29.92 "Hg10 mi
3:20 AM81 °FClear.10 mph37%29.92 "Hg10 mi
2:50 AM81 °FClear.13 mph34%29.92 "Hg10 mi
2:20 AM81 °FClear.9 mph34%29.95 "Hg10 mi
1:50 AM81 °FClear.8 mph34%29.95 "Hg10 mi
1:20 AM79 °FClear.8 mph37%29.95 "Hg10 mi
12:50 AM77 °FClear.6 mph36%29.95 "Hg10 mi
12:20 AM77 °FClear.6 mph34%29.95 "Hg10 mi
11:50 PM
Mon, Aug 31
81 °FClear.3 mph30%29.95 "Hg10 mi
11:20 PM79 °FClear.5 mph32%29.95 "Hg10 mi
10:50 PM81 °FClear.3 mph30%29.95 "Hg10 mi
10:20 PM82 °FClear.8 mph30%29.98 "Hg10 mi
9:50 PM84 °FClear.9 mph25%29.95 "Hg10 mi
9:20 PM84 °FClear.10 mph23%29.95 "Hg10 mi
Weather by CustomWeather, © 2015

See weather overviewHow to use our weather pages